Probability
0 0 0 0 0 0 0 0 0 0 0 0 0 0 0 0 0 0 0 0 0 0 0 0 0 0 0 0 0 0 0 0 0 0 0 0 0 0 0 0 0 0 0
0 0 0 0 0 0 0 0 0 0 0 0 0 0 0 0 0 0 0 0 0 0 0 0 0 0 0 0 0 0 0 0 0 0 0 0 0 0 0 0 0 0 0
0 0 0 0 0 0 0 0 0 0 0 0 0 0 0 0 0 0 0 0 0 0 0 0 0 0 0 0 0 0 0 0 0 0 0 0 0 0 0 0 0 0 0
0 0 0 0 0 0 0 0 0 0 0 0 0 0 0 0 0 0 0 0 0 0 0 0 0 0 0 0 0 0 0 0 0 0 0 0 0 0 0 0 0 0 0
0 0 0 0 0 0 0 0 0 0 0 0 0 0 0 0 0 0 0 0 0 0 0 0 0 0 0 0 0 0 0 0 0 0 0 0 0 0 0 0 0 0 0
0 0 0 0 0 0 0 0 0 0 0 0 0 0 0 0 0 0 0 0 0 0 0 0 0 0 0 0 0 0 0 0 0 0 0 0 0 0 0 0 0 0 0
0 0 0 0 0 0 0 0 0 0 0 0 0 0 0 0 0 0 0 0 0 0 0 0 0 0 0 0 0 0 0 0 0 0 0 0 0 0 0 0 0 0 0
0 0 0 0 0 0 0 0 0 0 0 0 0 0 0 0 0 0 0 0 0 0 0 0 0 0 0 0 0 0 0 0 0 0 0 0 0 0 0 0 0 0 0
0 0 0 0 0 0 0 0 0 0 0 0 0 0 0 0 0 0 0 0 0 0 0 0 0 0 0 0 0 0 0 0 0 0 0 0 0 0 0 0 0 0 0
0 0 0 0 0 0 0 0 0 0 0 0 0 0 0 0 0 0 0 0 0 0 0 0 0 0 0 0 0 0 0 0 0 0 0 0 0 0 0 0 0 0 0
0 0 0 0 0 0 0 0 0 0 0 0 0 0 0 0 0 0 0 0 0 0 0 0 0 0 0 0 0 0 0 0 0 0 0 0 0 0 0 0 0 0 0
0 0 0 0 0 0 0 0 0 0 0 0 0 0 0 0 0 0 0 0 0 0 0 0 0 0 0 0 0 0 0 0 0 0 0 0 0 0 0 0 0 0 0
0 0 0 0 0 0 0 0 0 0 0 0 0 0 0 0 0 0 0 0 0 0 0 0 0 0 0 0 0 0 0 0 0 0 0 0 0 0 0 0 0 0 0
0 0 0 0 0 0 0 0 0 0 0 0 0 0 0 0 0 0 0 0 0 0 0 0 0 0 0 0 0 0 0 0 0 0 0 0 0 0 0 0 0 0 0
0 0 0 0 0 0 0 0 0 0 0 0 0 0 0 0 0 0 0 0 0 0 0 0 0 0 0 0 0 0 0 0 0 0 0 0 0 0 0 0 0 0 0
0 0 0 0 0 0 0 0 0 0 0 0 0 0 0 0 0 0 0 0 0 0 0 0 0 0 0 0 0 0 0 0 0 0 0 0 0 0 0 0 0 0 0
0 0 0 0 0 0 0 0 0 0 0 0 0 0 0 0 0 0 0 0 0 0 0 0 0 0 0 0 0 0 0 0 0 0 0 0 0 0 0 0 0 0 0
0 0 0 0 0 0 0 0 0 0 0 0 0 0 0 0 0 0 0 0 0 0 0 0 0 0 0 0 0 0 0 0 0 0 0 0 0 0 0 0 0 0 0
0 0 0 0 0 0 0 0 0 0 0 0 0 0 0 0 0 0 0 0 0 0 0 0 0 0 0 0 0 0 0 0 0 0 0 0 0 0 0 0 0 0 0
0 0 0 0 0 0 0 0 0 0 0 0 0 0 0 0 0 0 0 0 0 0 0 0 0 0 0 0 0 0 0 0 0 0 0 0 0 0 0 0 0 0 0
0 0 0 0 0 0 0 0 0 0 0 0 0 0 0 0 0 0 0 0 0 0 0 0 0 0 0 0 0 0 0 0 0 0 0 0 0 0 0 0 0 0 0
0 0 0 0 0 0 0 0 0 0 0 0 0 0 0 0 0 0 0 0 0 0 0 0 0 0 0 0 0 0 0 0 0 0 0 0 0 0 0 0 0 0 0
0 0 0 0 0 0 0 0 0 0 0 0 0 0 0 0 0 0 0 0 0 0 0 0 0 0 0 0 0 0 0 0 0 0 0 0 0 0 0 0 0 0 0
0 0 0 0 0 0 0 0 0 0 0 0 0 0 0 0 0 0 0 0 0 0 0 0 0 0 0 0 0 0 0 0 0 0 0 0 0 0 0 0 0 0 0
0 0 0 0 0 0 0 0 0 0 0 0 0 0 0 0 0 0 0 0 0 0 0 0 0 0 0 0 0 0 0 0 0 0 0 0 0 0 0 0 0 0 0
0 0 0 0 0 0 0 0 0 0 0 0 0 0 0 0 0 0 0 0 0 0 0 0 0 0 0 0 0 0 0 0 0 0 0 0 0 0 0 0 0 0 0
Wind_Speed
3 3 4 4 4 4 4 5 5 6 6 6 6 6 6 6 5 5 5 5 5 5 5 5 6 5 4 4 4 4 4 3 5 4 2 2 3 3 2 2 3 3 3
4 4 4 4 4 4 5 5 6 6 6 6 6 6 6 6 5 5 6 5 5 5 5 5 5 4 5 4 4 5 4 4 4 5 3 3 3 3 3 3 2 2 2
4 4 4 5 5 5 6 6 6 6 6 6 6 6 6 6 6 6 6 6 5 5 5 5 5 5 5 4 4 5 4 4 3 4 4 3 2 2 2 1 1 1 2
4 4 5 5 5 6 6 6 6 6 6 6 6 6 7 7 6 6 6 6 5 5 5 5 5 6 6 5 5 5 5 4 3 3 3 3 2 2 2 2 2 2 2
4 4 5 6 5 6 6 6 6 6 6 6 6 6 6 6 5 6 6 5 5 5 5 5 6 7 8 7 5 5 4 4 3 3 3 3 3 3 4 2 3 1 2
4 5 6 6 6 6 6 6 6 6 6 6 6 7 7 6 9 11 8 5 4 5 5 5 5 6 8 9 9 9 7 5 5 5 4 5 4 3 3 3 3 3 3
4 5 6 6 6 7 7 6 6 6 6 6 6 6 7 8 12 11 11 6 4 4 4 5 5 5 6 4 6 8 8 10 10 6 6 6 5 5 5 5 4 4 4
5 5 5 6 7 7 6 6 6 6 6 6 6 6 7 8 12 12 11 5 4 4 5 5 5 5 5 5 4 4 5 5 7 6 6 6 5 5 6 6 5 3 1
5 6 6 6 7 7 7 7 6 6 6 6 6 6 6 8 12 12 10 4 4 4 5 5 5 5 8 8 5 4 4 4 5 6 6 6 7 7 5 3 3 3 3
6 6 6 6 6 7 7 7 6 6 6 7 7 6 6 7 11 12 10 4 4 4 4 5 7 7 8 8 4 4 5 4 3 3 3 4 4 5 7 6 5 5 2
6 6 6 6 6 7 6 5 6 6 6 6 7 6 6 7 9 11 10 4 4 4 4 4 4 9 9 9 7 4 6 5 3 2 2 2 2 2 3 3 3 4 4
6 6 6 6 6 6 5 6 5 5 6 6 6 6 5 6 8 9 10 9 7 5 5 4 5 8 8 8 6 6 7 5 2 2 2 2 2 2 2 2 2 2 2
6 6 7 7 6 6 5 6 5 4 4 5 5 6 5 5 6 11 10 10 9 6 4 7 8 8 7 5 5 6 4 2 2 2 3 3 2 2 2 1 1 1 1
6 7 6 6 6 5 5 5 4 4 5 5 5 5 5 5 5 5 5 5 7 6 5 5 7 6 4 4 4 3 2 2 2 2 2 2 1 1 2 2 2 1 1
6 6 6 6 6 5 5 4 5 4 5 6 5 5 5 5 7 11 7 5 4 4 3 2 1 1 2 2 2 2 2 1 1 1 1 1 1 1 1 1 1 1 1
6 6 5 5 5 5 5 6 8 8 11 11 10 9 7 10 13 12 11 10 9 7 3 1 2 2 2 2 2 2 2 2 2 2 2 2 2 2 2 1 1 2 2
5 6 5 5 5 5 5 6 7 8 10 10 11 12 11 12 12 11 10 9 7 5 2 2 2 2 2 2 2 2 3 2 2 2 2 2 2 2 2 2 2 2 2
5 6 6 5 5 5 5 5 5 6 7 6 8 12 13 13 12 10 9 7 4 3 2 2 3 3 3 3 3 3 3 2 2 2 2 2 2 2 2 2 2 3 2
5 4 5 5 4 4 5 5 5 5 5 6 6 8 11 12 11 9 8 3 3 3 3 3 3 3 3 3 3 3 3 3 3 3 2 3 2 2 2 3 3 4 3
5 8 7 5 4 4 5 5 5 5 5 5 6 6 7 7 5 5 4 3 3 3 3 3 3 3 3 3 3 3 3 3 3 3 3 3 2 2 3 4 3 3 3
4 6 9 6 4 4 5 5 5 5 5 5 5 7 10 5 5 5 5 4 4 4 4 4 4 4 4 3 3 3 4 4 3 3 3 3 3 3 3 3 3 3 3
4 4 4 4 4 5 5 5 5 5 6 6 6 7 10 6 4 4 4 5 5 4 4 4 4 3 4 4 4 4 4 4 4 3 3 3 3 3 3 3 3 3 3
4 4 4 4 4 7 6 5 5 5 5 6 6 6 5 5 5 5 5 5 5 5 4 4 4 4 4 4 4 4 5 5 4 4 4 4 4 4 4 4 5 5 4
3 4 4 5 5 4 5 5 5 5 5 5 5 5 5 5 5 6 5 5 5 5 5 4 5 6 7 6 4 4 5 5 5 5 6 5 5 5 4 4 5 6 5
3 3 4 4 5 5 5 5 5 5 6 6 5 5 5 5 5 6 5 5 6 6 6 6 5 5 7 8 7 6 8 10 8 5 5 5 6 6 6 6 5 5 5
3 4 4 4 4 5 5 5 5 6 5 6 5 5 5 6 6 6 5 5 5 6 6 5 6 7 8 7 7 9 11 11 10 9 5 4 5 5 6 5 6 6 6
Wind_Direction
301 299 303 301 302 302 300 300 302 303 306 306 308 308 307 303 298 288 283 278 270 267 262 254 252 243 236 243 245 241 239 231 248 265 259 261 226 216 220 217 229 218 216
295 297 297 298 300 301 301 300 300 300 302 304 304 305 304 304 299 288 284 285 278 273 264 259 260 254 245 241 240 240 239 235 234 252 258 248 236 219 201 208 231 232 219
296 295 297 299 300 301 301 301 300 300 302 304 305 304 302 299 298 292 284 279 275 274 269 258 258 253 251 252 248 241 238 243 236 231 243 250 244 213 190 230 219 221 242
303 300 296 295 297 299 300 300 299 299 301 302 302 301 300 298 295 294 290 282 277 276 274 267 258 247 242 239 244 244 237 232 232 224 234 239 232 205 184 202 220 217 235
302 301 300 301 300 301 303 302 301 301 303 301 302 301 301 296 291 293 286 284 279 279 277 278 268 256 254 245 240 235 232 227 222 224 225 234 225 202 201 197 213 204 240
300 299 303 306 307 307 306 305 305 305 303 302 301 300 298 297 300 301 299 283 280 279 285 288 283 265 264 261 254 245 236 232 227 223 230 225 227 219 201 195 197 199 233
301 303 306 308 309 308 309 310 306 303 303 303 299 296 294 295 301 301 300 295 283 281 283 287 292 287 279 268 262 254 247 249 242 235 231 230 222 215 203 207 213 217 226
304 306 309 310 308 308 309 308 306 303 302 299 298 295 293 298 305 302 302 291 282 280 278 277 279 292 287 277 267 259 252 253 248 242 234 235 237 217 213 215 213 218 228
308 309 310 309 308 309 309 307 306 305 302 298 298 297 295 299 305 306 306 293 286 282 279 277 279 276 286 286 274 265 265 266 262 254 255 246 240 237 223 194 187 195 224
308 308 307 305 304 303 302 303 303 303 300 304 304 301 294 294 303 306 307 296 291 291 286 276 274 279 283 286 275 261 264 269 266 265 261 252 239 228 222 209 195 198 206
310 308 306 305 302 296 297 300 303 305 307 305 302 300 295 296 305 307 306 304 291 290 288 285 278 281 281 284 279 264 268 274 266 253 254 247 236 224 214 218 213 203 205
310 308 306 306 304 306 303 303 305 306 306 305 304 303 297 297 304 305 305 307 305 292 289 289 285 291 293 293 289 279 278 277 257 249 245 242 239 236 217 208 218 230 231
312 308 306 306 305 308 306 303 304 302 300 303 304 305 307 307 305 308 309 309 307 303 291 293 298 303 306 300 299 300 296 273 253 249 248 255 254 236 197 168 132 106 74
308 307 307 308 308 310 308 305 302 299 297 300 302 303 305 307 306 308 307 304 303 302 296 292 297 302 306 306 311 315 304 281 267 261 262 265 247 215 198 181 176 160 148
307 306 308 308 306 307 305 297 299 286 294 300 297 297 302 302 304 311 313 309 305 298 305 295 298 305 309 313 316 315 306 299 288 278 262 246 221 218 211 183 176 185 197
309 311 309 308 306 307 308 310 309 309 312 314 311 306 301 301 308 311 312 313 314 314 316 306 301 297 294 297 298 301 299 294 286 272 257 253 226 215 209 197 188 184 191
302 306 305 309 308 308 310 312 314 319 320 321 322 320 317 318 317 314 315 318 316 320 321 308 299 296 296 299 299 292 288 288 286 274 264 256 233 221 206 197 192 185 193
304 305 308 303 302 302 305 308 309 314 319 320 324 327 326 325 325 325 328 331 326 328 318 306 302 301 299 295 293 293 291 287 281 275 269 256 233 220 210 201 198 196 197
308 306 304 302 303 303 305 306 307 309 310 314 321 326 330 329 330 330 332 330 320 313 310 304 301 299 295 292 287 283 282 275 267 263 258 252 238 221 213 206 205 208 205
309 315 319 315 315 316 315 313 313 313 314 316 319 320 322 326 328 331 332 325 316 309 305 300 298 294 290 286 284 280 276 274 262 251 249 246 239 230 218 211 207 205 210
311 313 320 321 315 314 313 313 313 313 313 313 314 320 326 326 325 327 327 324 318 312 309 302 297 294 290 287 282 275 270 270 263 252 247 244 234 235 229 216 210 207 207
310 309 312 313 313 316 315 313 314 314 314 313 313 317 326 327 322 319 317 316 314 311 307 300 292 289 285 282 279 277 272 268 263 253 247 243 236 234 226 210 205 204 205
309 312 316 317 316 318 320 318 314 312 311 312 314 316 319 319 316 314 313 313 313 312 311 307 299 294 292 287 279 269 266 264 261 252 244 240 234 230 223 213 208 208 212
317 318 318 317 316 315 314 315 314 313 312 312 313 315 315 313 311 311 311 310 310 308 307 305 300 298 298 295 287 278 272 271 265 250 237 230 227 227 221 216 216 214 212
328 321 317 314 314 314 314 313 312 312 313 313 313 314 314 312 310 309 309 309 309 308 309 306 302 301 299 297 293 288 287 286 280 263 232 224 223 223 218 216 214 211 210
323 318 314 313 313 313 313 312 311 312 311 311 310 310 309 309 308 307 307 308 309 307 307 306 304 304 303 299 294 297 298 295 288 276 258 230 222 219 213 212 209 208 205